User: anonymous   Login
Location: Unspecified
(0.0000°N, 0.0000°E)
Time: 21:30:10
(UTC+00:00)
Language:

NUDT-PHONESAT - Orbit

View from above orbital plane
View from above orbital plane
View from above satellite
View from above satellite

Ground track
Ground track

The orbit data is extracted from the following two-line orbital elements,

1 40900U 15049B   18344.49727019  .00001866  00000-0  84545-4 0  9992
2 40900  97.4395 350.7939 0014609 127.3847 356.8867 15.22018922178720
Epoch (UTC): 10 December 2018 11:56:04
Eccentricity: 0.0014609
inclination: 97.4395°
perigee height: 490 km
apogee height: 510 km
right ascension of ascending node: 350.7939°
argument of perigee: 127.3847°
revolutions per day: 15.22018922
mean anomaly at epoch: 356.8867°
orbit number at epoch: 17872

The dashed part of the orbit path shows where the satellite is in the earth's shadow,  

DLR